Date,TemperatureHighF,TemperatureAvgF,TemperatureLowF,DewpointHighF,DewpointAvgF,DewpointLowF,HumidityHigh,HumidityAvg,HumidityLow,PressureMaxIn,PressureMinIn,WindSpeedMaxMPH,WindSpeedAvgMPH,GustSpeedMaxMPH,PrecipitationSumIn
2013-5-1,55.6,50.4,46.9,48.7,45.7,40.7,95,84,70,30.48,30.32,9,3,0,0.00
2013-5-2,57.1,53.5,49.0,49.9,47.4,44.2,93,80,64,30.47,30.33,8,2,0,0.00
2013-5-3,53.3,51.3,49.0,49.1,44.8,41.6,89,79,68,30.46,30.35,14,4,16,0.00
2013-5-4,54.5,50.8,48.2,48.5,45.4,41.7,90,82,73,30.36,30.26,11,4,0,0.00
2013-5-5,51.3,48.7,46.9,45.3,42.8,40.3,90,80,75,30.29,30.23,12,5,16,0.00
2013-5-6,53.2,49.7,47.2,49.2,46.9,44.5,95,90,84,30.27,30.16,10,3,0,0.00
2013-5-7,55.1,52.2,48.7,53.7,50.9,47.3,97,95,94,30.17,30.08,9,2,0,0.01
2013-5-8,59.1,56.3,54.4,57.5,55.0,53.3,98,95,88,30.09,29.96,12,4,15,1.65
2013-5-9,66.5,57.8,53.0,61.1,55.2,51.9,98,91,79,30.00,29.89,8,2,0,0.36
2013-5-10,68.8,61.2,56.7,61.0,57.5,54.3,94,88,71,30.00,29.88,9,2,15,0.00
2013-5-11,66.7,61.1,56.6,62.0,58.9,55.3,98,93,76,29.90,29.70,11,2,12,1.95
2013-5-12,66.9,61.0,53.0,62.2,46.1,30.3,98,62,29,29.95,29.66,13,3,17,0.02
2013-5-13,56.3,51.2,45.4,36.1,32.8,27.3,68,50,37,30.10,29.95,12,2,16,0.00
2013-5-14,60.3,51.1,42.4,45.1,36.1,23.5,78,59,26,30.13,30.03,12,1,16,0.00
2013-5-15,68.7,56.3,49.8,59.4,48.9,32.6,88,77,49,30.08,29.68,11,2,16,0.00
2013-5-16,71.3,64.9,57.0,59.9,54.8,45.5,89,71,45,29.83,29.70,9,1,0,0.00
2013-5-17,71.7,64.7,59.0,59.6,46.4,40.6,85,53,34,30.19,29.82,9,1,12,0.00
2013-5-18,59.5,57.2,55.8,55.0,52.8,48.8,92,85,69,30.32,30.19,5,1,0,0.01
2013-5-19,57.1,55.6,55.1,56.5,54.4,53.2,98,96,89,30.31,30.16,12,4,0,0.22
2013-5-20,69.6,60.7,55.4,67.2,59.3,54.8,98,95,89,30.17,29.97,9,1,0,0.02
2013-5-21,74.3,66.5,59.8,70.0,63.2,58.1,97,89,78,29.97,29.84,12,2,13,0.00
2013-5-22,71.4,63.2,57.9,67.7,60.9,55.8,97,92,85,29.93,29.82,9,2,0,0.00
2013-5-23,74.0,62.9,58.6,69.4,60.9,57.3,98,93,77,29.90,29.76,13,3,17,0.09
2013-5-24,67.7,56.5,46.4,64.3,54.0,43.3,98,92,82,29.95,29.69,12,2,13,0.10
2013-5-25,57.1,50.3,44.9,46.4,43.4,38.1,95,79,56,30.01,29.90,14,2,16,0.09
2013-5-26,67.5,58.1,49.7,42.0,39.5,35.3,71,52,31,30.19,29.97,12,3,13,0.00
2013-5-27,71.0,59.9,46.9,51.3,42.9,36.3,75,55,33,30.25,30.13,11,2,16,0.00
2013-5-28,61.5,57.4,54.7,56.6,52.7,45.6,97,85,57,30.23,30.12,7,1,0,0.27
2013-5-29,84.8,63.2,55.3,67.4,58.9,54.2,97,87,51,30.12,30.00,9,1,0,0.00
2013-5-30,85.7,73.5,65.8,69.9,65.2,58.6,85,76,51,30.12,30.05,9,2,0,0.00
2013-5-31,81.4,73.8,68.1,71.1,66.0,60.3,88,77,64,30.12,29.99,10,2,0,0.00